Regional Weather Roundup
Issued by NWS Green Bay, WI

Home | Current Version | Previous Version | Graphics & Text | Print | Product List | Glossary Off
Versions: 1 2 3 4 5 6 7 8 9 10 11 12 13 14 15 16 17 18 19 20 21 22 23 24 25 26 27 28 29 30 31 32 33 34 35 36 37 38 39 40 41 42 43 44 45 46 47 48 49 50

000
ASUS43 KGRB 221811
RWRGRB

NORTH-CENTRAL AND NORTHEAST WISCONSIN REGIONAL WEATHER ROUNDUP
NATIONAL WEATHER SERVICE GREEN BAY WI
1200 PM CST MON JAN 22 2018

WIZ005-009-010>012-018-019-221900-
NORTH CENTRAL WISCONSIN

CITY           SKY/WX    TMP DP  RH WIND       PRES   REMARKS
IRONWOOD       LGT SNOW  27  25  93 NE14      29.84F FOG
MANITOWISH WTR LGT SNOW  28  28 100 NE15G22   29.77F
ARBOR VITAE    LGT SNOW  32  30  92 NE10G17   29.74F VSB 3/4
EAGLE RIVER    LGT SNOW  30  29  97 NE14      29.74F
LAND O LAKES   LGT SNOW  29  29  97 NE10G20   29.78F
RHINELANDER    LGT SNOW  31  30  96 NE10G20   29.71F VSB 1
PHILLIPS       LGT SNOW  29  28  97 NE14G21   29.74F
ANTIGO         LGT SNOW  32  30  93 NE21      29.67F
TOMAHAWK       LGT SNOW  31  29  92 NE10G17   29.71F VSB 3/4
MERRILL        LGT SNOW  32  31  96 NE13G23   29.67F
$$

WIZ013-073-221900-
NORTHEAST WISCONSIN

CITY           SKY/WX    TMP DP  RH WIND       PRES   REMARKS
IRON MOUNTAIN  SNOW      32  28  85 NE13G22   29.76F VSB 1/2
MARINETTE      LGT SNOW  30  30 100 NE30G37   29.70F VSB 3/4
OCONTO         CLOUDY    32  31  94 NE15G22   29.68F
$$

WIZ017-030-035>037-045-221900-
CENTRAL WISCONSIN

CITY           SKY/WX    TMP DP  RH WIND       PRES   REMARKS
MEDFORD        LGT SNOW  31  30  94 NE21      29.62F VSB 3/4
WAUSAU         LGT SNOW  33  31  92 NE10G21   29.62F VSB 3/4
MOSINEE        LGT SNOW  34  32  93 NE21G28   29.65F VSB 3/4
MARSHFIELD     LGT SNOW  33  32  96 NE20G28   29.58F FOG
WISC RAPIDS    NOT AVBL
STEVENS POINT  MIX PCPN  32  32 100 NE20G25   29.61F
WAUPACA        RAIN      37  33  88 NE12G17   29.64F
SHAWANO        LGT SNOW  35  32  90 NE21G26   29.67F
CLINTONVILLE   RAIN      34  32  93 E18G24    29.66S
WAUTOMA        CLOUDY    35  33  92 NE17G24   29.58F
$$

WIZ038-039-048-051-221900-
FOX VALLEY

CITY           SKY/WX    TMP DP  RH WIND       PRES   REMARKS
NWS GREEN BAY  LGT RAIN  34  32  92 NE23G30   29.65S FOG
APPLETON       LGT RAIN  36  36 100 NE18G25   29.61R FOG
OSHKOSH        LGT RAIN  35  34  96 NE14      29.58F FOG
FOND DU LAC    CLOUDY    38  34  85 NE13      29.57F
$$

WIZ022-050-052-221900-
EAST CENTRAL WISCONSIN

CITY           SKY/WX    TMP DP  RH WIND       PRES   REMARKS
EPHRAIM        LGT SNOW  31  30  96 NE18G28   29.71F VSB 1
WASHINGTON ISL LGT SNOW  30  29  95 NE16G30   29.75F VSB 3/4
STURGEON BAY   LGT SNOW  34  32  92 NE15G28   29.68F FOG
MANITOWOC      LGT RAIN  36  35  96 NE12G22   29.60F FOG
SHEBOYGAN      MIX PCPN  36  36 100 NE17      29.57F FOG
$$

LMZ563-521-522-541>543-221900-
LAKESHORE

STATION/POSITION TIME  TEMP    WIND        PRES    VSBY  WAVE
                       AIR SEA DIR/SP/G                  HT/PER
                 (UTC) (F)     (DEG/KT/KT) (MB)    (MI)  (FT/S)
SHEBOYGAN LKSHOR 1800   36      30/ 16/ 18 1001.7F
KEWAUNEE LKSHORE 1742   36      50/ 13/ 22 1003.4F
NORTHPORT PIER   1740   31      50/  4/ 16 1008.1F
SISTER BAY LKSHO 1720   32      90/ 10/ 18   N/A
MENOMINEE LKSHOR 1736   31     360/ 33/ 33 1006.3F
$$




USA.gov is the U.S. government's official web portal to all federal, state and local government web resources and services.